This is the latest recevied weather packets stored in our database for station/object KY0TEQ-13. If no packets are shown the sender has not sent any weather packets the latest 10 day(s).
| Time | Temp. | Humidity | Pressure | Rain* | Wind** | Luminosity | Snow |
|---|---|---|---|---|---|---|---|
| 1777897007 | 7.22° C | 65% | 1300.1 hPa | 0 mm | - | 1 W/m² | - |
| 1777896704 | 7.22° C | 66% | 1300.1 hPa | 0 mm | - | 1 W/m² | - |
| 1777896401 | 7.22° C | 66% | 1300 hPa | 0 mm | - | 0 W/m² | - |
| 1777896099 | 7.22° C | 66% | 1300.1 hPa | 0 mm | - | 0 W/m² | - |
| 1777895797 | 7.78° C | 65% | 1299.9 hPa | 0 mm | - | 0 W/m² | - |
| 1777895493 | 7.78° C | 63% | 1300.1 hPa | 0 mm | - | 0 W/m² | - |
| 1777894586 | 7.78° C | 62% | 1300.4 hPa | 0 mm | - | 0 W/m² | - |
| 1777894283 | 7.78° C | 61% | 1300 hPa | 0 mm | - | 0 W/m² | - |
| 1777893980 | 7.78° C | 62% | 1300.4 hPa | 0 mm | - | 0 W/m² | - |
| 1777893676 | 7.78° C | 62% | 1300.1 hPa | 0 mm | - | 0 W/m² | - |
| 1777893372 | 7.78° C | 62% | 1300.4 hPa | 0 mm | - | 0 W/m² | - |
| 1777893068 | 7.78° C | 62% | 1300.2 hPa | 0 mm | - | 0 W/m² | - |
| 1777892766 | 8.33° C | 61% | 1300.4 hPa | 0 mm | - | 0 W/m² | - |
| 1777892462 | 7.78° C | 62% | 1300.5 hPa | 0 mm | - | 0 W/m² | - |
| 1777892157 | 8.33° C | 61% | 1300.4 hPa | 0 mm | - | 0 W/m² | - |
| 1777891552 | 8.33° C | 61% | 1300.4 hPa | 0 mm | - | 0 W/m² | - |
| 1777890649 | 8.33° C | 62% | 1300.1 hPa | 0 mm | - | 0 W/m² | - |
| 1777890041 | 8.33° C | 62% | 1300.1 hPa | 0 mm | - | 0 W/m² | - |
| 1777889738 | 8.33° C | 62% | 1300.5 hPa | 0 mm | - | 0 W/m² | - |
| 1777889436 | 8.33° C | 62% | 1300.1 hPa | 0 mm | - | 0 W/m² | - |
| 1777889133 | 8.33° C | 61% | 1300.2 hPa | 0 mm | - | 0 W/m² | - |
| 1777888831 | 8.33° C | 61% | 1300.4 hPa | 0 mm | - | 0 W/m² | - |
| 1777888527 | 8.89° C | 60% | 1300.1 hPa | 0 mm | - | 0 W/m² | - |
| 1777887921 | 9.44° C | 57% | 1300.4 hPa | 0 mm | - | 0 W/m² | - |
| 1777887618 | 8.89° C | 58% | 1300.4 hPa | 0 mm | - | 0 W/m² | - |
* Rain latest hour (hover to see other rain measurements)
** Current wind speed in m/s (hover to see current wind gust speed)